Regional Weather Roundup
Issued by NWS

Home | Current Version | Previous Version | Text Only | Print | Product List | Glossary Off
Versions: 1 2 3 4 5 6 7 8 9 10 11 12 13 14 15 16 17 18 19 20 21 22 23 24 25 26 27 28 29 30 31 32 33 34 35 36 37 38 39 40 41 42 43 44 45 46 47 48 49 50

274
ASUS44 KMEG 291710
RWRTN
TENNESSEE HOURLY STATE WEATHER ROUNDUP
NATIONAL WEATHER SERVICE MEMPHIS TN
1200 PM CDT THU SEP 29 2016

TNZ002-004-019-021-049-052-054-088>092-291800-
WEST TENNESSEE

CITY           SKY/WX    TMP DP  RH WIND       PRES   REMARKS
MEMPHIS INTL   MOSUNNY   71  50  47 NW13      30.16F
NWS MEMPHIS      N/A     69 N/A N/A MISG        N/A
JACKSON        MOSUNNY  N/A N/A N/A NW8       30.14F
DYERSBURG      MOSUNNY  N/A N/A N/A MISG        N/A
UNION CITY     CLOUDY    61  54  77 N12       30.14S
PARIS          CLOUDY    55  50  82 NW8       30.14S
HUNTINGDON     PTSUNNY   64  54  68 VRB6G13   30.12F
LEXINGTON      PTSUNNY   66  50  55 NW10      30.11F
$$

TNZ008-025-027-028-033-062-065-066-291800-
NORTH MIDDLE TENNESSEE

CITY           SKY/WX    TMP DP  RH WIND       PRES   REMARKS
NASHVILLE      PTSUNNY   66  50  56 N5        30.10S
PORTLAND       CLOUDY    59  52  77 CALM      30.10S
CLARKSVILLE    CLOUDY    58  51  78 NW7       30.11S
SMYRNA         CLOUDY    63  51  65 NW5       30.11S
COOKEVILLE     CLOUDY    61  52  72 VRB3      30.09S
GALLATIN       CLOUDY    61  50  67 VRB5G12   30.12F
CROSSVILLE     CLOUDY    59  45  59 NW8       30.08S
$$

TNZ061-075-076-078-094-096-097-291800-
SOUTH MIDDLE TENNESSEE

CITY           SKY/WX    TMP DP  RH WIND       PRES   REMARKS
FAYETTEVILLE   PTSUNNY   64  48  55 NW8G17    30.09F
TULLAHOMA      MOSUNNY   61  46  59 VRB7      30.11F
WINCHESTER     MOSUNNY   63  48  59 N7        30.09F
MCMINNVILLE    PTSUNNY   63  48  59 VRB7      30.09F
COLUMBIA       CLOUDY    64  55  72 NW5       30.09S
SHELBYVILLE    PTSUNNY   66  52  59 VRB7      30.10F
$$

TNZ017-018-042-046-047-291800-
NORTHEAST TENNESSEE

CITY           SKY/WX    TMP DP  RH WIND       PRES   REMARKS
TRI CITIES     PTSUNNY   68  54  60 W9        30.01S
ELIZABETHTON   MOSUNNY   68  57  68 SW8       30.00R
$$

TNZ012-013-036-069-073-074-291800-
CENTRAL EAST TENNESSEE

CITY           SKY/WX    TMP DP  RH WIND       PRES   REMARKS
KNOXVILLE      PTSUNNY   68  54  60 VRB3        N/A
OAK RIDGE      CLOUDY    67  51  56 VRB3      30.05S
DOWNTOWN KNOXV SUNNY     70  52  52 CALM      30.02F
GATLINBURG     CLOUDY    63  54  72 W6        30.03S
MORRISTOWN     CLOUDY    64  54  68 VRB3      30.02F
JACKSBORO      CLOUDY    61  50  67 NE6       30.09S
$$

TNZ083-085-099-291800-
SOUTHEAST TENNESSEE

CITY           SKY/WX    TMP DP  RH WIND       PRES   REMARKS
CHATTANOOGA    MOSUNNY   71  46  40 NW10      30.04F
$$

SKY/WX REPORTED AS FAIR MEANS FEW OR NO CLOUDS BELOW
12 THOUSAND FEET.





USA.gov is the U.S. government's official web portal to all federal, state and local government web resources and services.